Location: Joplin, MO
(37.0842°N, 94.5133°W)
Time: 20:30:59
(UTC+02:00)

Courier 1B Rocket - Pass Details

Date: 03 April 2023
Orbit: 920 x 1202 km, 28.2° (Epoch: 08 June)

Event Time Altitude Azimuth Distance (km) Brightness Sun altitude
Rises 02:20:58 0° 251° (WSW) 4,061 9.7 3.2°
Reaches altitude 10° 02:24:01 10° 245° (WSW) 3,073 8.8 2.6°
Maximum altitude 02:31:04 42° 178° (S) 1,549 6.1 1.2°
Drops below altitude 10° 02:37:43 10° 110° (ESE) 2,898 6.9 -0.1°
Enters shadow 02:40:21 - 103° (ESE) 3,754 7.4 -0.6°
Sets 02:40:31 0° 103° (ESE) 3,809 - -0.7°
